Location: Cheyres
(46.8153°N, 6.7877°E)
Time: 14:10:25
(UTC+00:00)

Cosmos 1544 - Pass Details

Date: 11 May 2021
Orbit: 471 x 487 km, 82.5° (Epoch: 19 June)

Event Time Altitude Azimuth Distance (km) Brightness Sun altitude
Rises 21:31:23 0° 354° (N) 2,537 7.9 -19.9°
Reaches altitude 10° 21:33:30 10° 358° (N) 1,656 6.7 -20.0°
Maximum altitude 21:37:04 60° 79° (ENE) 555 3.1 -20.3°
Enters shadow 21:37:09 60° 85° (E) 555 3.1 -20.3°
